FW9209 Weather Reports


time (UTC)temp
C
wind
direction
speed
KPH
gust
KPH
rain 1hr
cm
rain 24hr
cm
rain mn
cm
humidity
%
barometer
mb
20260906144607 21 0 0.0 0.0 0.00 0.00 0.00 79 1021.6
20260906143059 21 0 0.0 0.0 0.00 0.00 0.00 79 1021.9
20260906141620 20 0 0.0 0.0 0.00 0.00 0.00 83 1021.8
20260906140111 19 0 0.0 0.0 0.00 0.00 0.00 87 1021.8
20260906134631 18 0 0.0 0.0 0.00 0.00 0.00 96 1021.8
20260906133111 16 0 0.0 0.0 0.00 0.00 0.00 98 1021.9
20260906131601 16 0 0.0 0.0 0.00 0.00 0.00 99 1021.9
20260906130146 15 0 0.0 0.0 0.00 0.00 0.00 99 1021.6
20260906124609 15 0 0.0 0.0 0.00 0.00 0.00 99 1021.5
20260906123104 15 0 0.0 0.0 0.00 0.00 0.00 99 1021.5
20260906121610 14 0 0.0 0.0 0.00 0.00 0.00 99 1021.5
20260906120111 14 0 0.0 0.0 0.00 0.00 0.00 99 1021.3
20260906114607 14 0 0.0 0.0 0.00 0.00 0.00 99 1021.3
20260906113108 14 0 0.0 0.0 0.00 0.00 0.00 99 1020.8
20260906111558 14 0 0.0 0.0 0.00 0.00 0.00 99 1020.6
20260906110101 14 0 0.0 0.0 0.00 0.00 0.00 99 1020.5
20260906104603 14 0 0.0 0.0 0.00 0.00 0.00 99 1020.7
20260906103101 14 0 0.0 0.0 0.00 0.00 0.00 98 1020.6
20260906101602 14 0 0.0 0.0 0.00 0.00 0.00 99 1020.6
20260906094601 14 0 0.0 0.0 0.00 0.00 0.00 98 1020.4
20260906093105 14 0 0.0 0.0 0.00 0.00 0.00 98 1020.4
20260906091620 14 0 0.0 0.0 0.00 0.00 0.00 98 1020.4
20260906090109 15 0 0.0 0.0 0.00 0.00 0.00 98 1020.4
20260906084621 15 0 0.0 0.0 0.00 0.00 0.00 98 1020.3
20260906083104 15 0 0.0 0.0 0.00 0.00 0.00 98 1020.4
20260906081603 15 0 0.0 0.0 0.00 0.00 0.00 98 1020.6
20260906074600 16 0 0.0 0.0 0.00 0.00 0.00 98 1020.3
20260906073102 16 0 0.0 0.0 0.00 0.00 0.00 98 1020.3
20260906071604 16 0 0.0 0.0 0.00 0.00 0.00 98 1020.5
20260906070121 16 0 0.0 0.0 0.00 0.00 0.00 98 1020.3
20260906064602 16 0 0.0 0.0 0.00 0.00 0.00 97 1020.2
20260906063103 16 0 0.0 0.0 0.00 0.00 0.00 97 1020.4
20260906061626 17 0 0.0 0.0 0.00 0.00 0.00 98 1020.5
20260906060116 17 0 0.0 0.0 0.00 0.00 0.00 98 1020.5
20260906054605 17 0 0.0 0.0 0.00 0.00 0.00 97 1020.5
20260906053105 17 0 0.0 0.0 0.00 0.00 0.00 97 1020.1
20260906051610 17 0 0.0 0.0 0.00 0.00 0.00 98 1020.1
20260906044603 17 0 0.0 0.0 0.00 0.00 0.00 97 1019.7
20260906043119 17 0 0.0 0.0 0.00 0.00 0.00 97 1019.6
20260906041628 17 0 0.0 0.0 0.00 0.00 0.00 97 1019.3
20260906040103 17 0 0.0 0.0 0.00 0.00 0.00 96 1019.1
20260906034605 17 0 0.0 0.0 0.00 0.00 0.00 96 1019.2
20260906033104 18 0 0.0 0.0 0.00 0.00 0.00 96 1019.1
20260906031603 18 0 0.0 0.0 0.00 0.00 0.00 96 1019.0
20260906030101 18 0 0.0 0.0 0.00 0.00 0.00 96 1018.8
20260906024601 18 0 0.0 0.0 0.00 0.00 0.00 95 1018.8
20260906023110 19 0 0.0 0.0 0.00 0.00 0.00 94 1018.7
20260906021611 19 0 0.0 0.0 0.00 0.00 0.00 94 1018.6
20260906014606 20 0 0.0 0.0 0.00 0.00 0.00 91 1018.5
20260906013104 21 0 0.0 3.2 0.00 0.00 0.00 89 1018.2
20260906011607 21 68 3.2 6.4 0.00 0.00 0.00 88 1018.1
20260906010108 21 60 0.0 4.8 0.00 0.00 0.00 86 1018.1
20260906004602 22 82 4.8 8.0 0.00 0.00 0.00 85 1018.0
20260906003104 22 89 3.2 8.0 0.00 0.00 0.00 83 1017.9
20260906001559 23 80 1.6 4.8 0.00 0.00 0.00 81 1017.6
20260906000101 23 91 1.6 8.0 0.00 0.00 0.00 80 1017.7
20260905234600 25 145 4.8 9.7 0.00 0.00 0.00 76 1017.7
20260905233117 26 0 0.0 8.0 0.00 0.00 0.00 75 1017.6
20260905231559 27 252 1.6 6.4 0.00 0.00 0.00 69 1017.7
20260905230057 27 178 1.6 3.2 0.00 0.00 0.00 70 1017.8
20260905224606 26 53 0.0 1.6 0.00 0.00 0.00 71 1017.8
20260905223101 26 89 1.6 6.4 0.00 0.00 0.00 71 1017.7
20260905221602 25 0 0.0 1.6 0.00 0.00 0.00 74 1017.8
20260905220106 25 0 0.0 0.0 0.00 0.00 0.00 78 1017.8
20260905214559 25 0 0.0 0.0 0.00 0.00 0.00 77 1018.1
20260905213110 25 0 0.0 0.0 0.00 0.00 0.00 73 1018.2
20260905211611 26 0 0.0 0.0 0.00 0.00 0.00 75 1018.1
20260905210114 26 0 0.0 4.8 0.00 0.00 0.00 74 1018.1
20260905204603 26 352 0.0 6.4 0.00 0.00 0.00 72 1018.1
20260905203102 26 0 0.0 3.2 0.00 0.00 0.00 73 1018.1
20260905201603 25 24 1.6 4.8 0.00 0.00 0.00 74 1018.4
20260905200108 25 92 1.6 4.8 0.00 0.00 0.00 72 1018.4
20260905194606 26 233 1.6 6.4 0.00 0.00 0.00 71 1018.5
20260905193104 25 0 0.0 4.8 0.00 0.00 0.00 74 1018.5
20260905191603 25 0 1.6 6.4 0.00 0.00 0.00 77 1018.5
20260905190105 25 284 3.2 8.0 0.00 0.00 0.00 78 1018.5
20260905184616 23 45 1.6 8.0 0.00 0.00 0.00 76 1018.6
20260905183119 24 181 1.6 6.4 0.00 0.00 0.00 79 1018.9
20260905181603 25 0 0.0 3.2 0.00 0.00 0.00 78 1018.7
20260905180108 23 27 0.0 4.8 0.00 0.00 0.00 81 1018.6
20260905174605 24 0 0.0 0.0 0.00 0.00 0.00 80 1018.8
20260905173106 23 5 1.6 4.8 0.00 0.00 0.00 82 1018.9
20260905171602 23 83 0.0 1.6 0.00 0.00 0.00 84 1019.0
20260905164602 22 14 0.0 6.4 0.00 0.00 0.00 85 1019.2
20260905163108 22 0 0.0 3.2 0.00 0.00 0.00 85 1019.1
20260905161604 22 335 1.6 6.4 0.00 0.00 0.00 85 1019.4
20260905154607 22 63 1.6 6.4 0.00 0.00 0.00 84 1019.1
20260905153116 22 0 0.0 4.8 0.00 0.00 0.00 86 1018.8
20260905151613 21 6 0.0 1.6 0.00 0.00 0.00 89 1018.8
20260905150100 20 345 0.0 6.4 0.00 0.00 0.00 92 1018.7